sat.trackr.live / text

‹ back to catalog

STARLINK-6274

NORAD 56776 · 2023-078K

PAYLOAD ACTIVE UNKNOWN

§ Identity

Operator
Country
US
Launch date
2023-05-31
Launch site
AFWTR
Launch vehicle
Mass (kg)
RCS (m²)

Purposes: comms

External: N2YO · Heavens-Above · Gunter

§ Orbital elements

Epoch: 2026-09-20T22:00:03.000096Z

Period
95.50 min
Inclination
70.0011°
Eccentricity
0.0001121
Mean motion
15.07881200 rev/d
Perigee alt
541.9 km
Apogee alt
543.5 km
Semi-major
6,920.8 km
B*
1.6201e-5
RAAN
192.2651°
Arg perigee
304.0300°
Mean anomaly
126.6055°
Rev number
571

§ Raw data

STARLINK-62741 56776U 23078K   26263.91670139  .00000147  00000+0  16201-4 0  99912 56776  70.0011 192.2651 0001121 304.0300 126.6055 15.07881200  5713

JSON: /api/v1/satellites/56776 · /tle

For live sub-satellite position, see the globe view (requires WebGL).

§ Visibility from observer

Set your observer location to see the next 7 days of passes ≥ 10°. The values pass through the URL so the page stays shareable.

No JS? Fill the form by hand. The geolocation button needs JavaScript.